Погода в Поселке Курорт Озеро

Россия / Курганская область     55°08′06″N   62°32′04″E
темп.,
°C
ветер,
м/с
пор.,
м/с
влажн.,
%
обл.,
%
осадки,
мм/ч
давл.,
гПа
погр.,
м
29 мая, вс
вс2923:00+11юз458486 0.4 101269
02:00+10ююз468576 0.0 101286
05:00+11ю61392100 1.9 1011394
08:00+12ююз71488100 0.5 1010416
11:00+18зюз9146854 0.6 10111530
14:00+20з8144992 0.0 10122442
17:00+19з7145248 0.0 10141991
20:00+15з51364100 0.0 1016406
30 мая, пн
пн3023:00+12з4127465 0.0 1018247
02:00+11зюз4981100 0.0 1018157
05:00+11зюз368252 0.0 101895
08:00+14юз2475100 0.0 1017192
11:00+15ю3876100 0.6 1015679
14:00+15сз599175 3.8 1014555
17:00+13сз698527 3.8 1016814
20:00+13зсз510820 0.0 1016683
31 мая, вт
вт3123:00+10з411920 0.0 1016280
02:00+9з513874 0.0 1016388
05:00+9з6138757 0.0 1015391
08:00+12зсз8117829 0.0 1015812
11:00+15сз786796 0.1 10151397
14:00+14сз686998 0.4 10151318
17:00+13сз687348 0.9 1016842
20:00+12сз488516 0.0 1017440
1 июня, ср
ср123:00+10ссз4109326 0.0 1018218
02:00+9сз499485 0.0 1018204
05:00+8сз410935 0.0 1019215
08:00+12ссз577118 0.0 1020436
11:00+16ссз5750100 0.0 10201403
14:00+18сз68495 0.0 10191812
17:00+19сз59485 0.0 10182078
20:00+17з357013 0.0 101794
2 июня, чт
чт223:00+13зсз411785 0.0 1018169
02:00+11сз49835 0.0 1019146
05:00+10ссз378620 0.0 1020134
08:00+14ссв45715 0.0 1021405
11:00+17св44525 0.0 1022943
14:00+18ссв344970 0.0 10231304
17:00+18ссв3351100 0.0 10231247
20:00+15в337082 0.0 102359